Location: Bambrugge
(50.9212°N, 3.9299°E)
Time: 05:03:14
(UTC+00:00)

SL-16 R/B - Pass Details

Date: 14 August 2024
Orbit: 842 x 845 km, 71.0° (Epoch: 16 September)

Event Time Altitude Azimuth Distance (km) Brightness Sun altitude
Exits shadow 22:03:21 25° 98° (E) 1,652 3.4 -21.1°
Drops below altitude 10° 22:07:34 10° 50° (NE) 2,474 4.8 -21.4°
Sets 22:10:24 0° 38° (NE) 3,414 5.7 -21.6°
